EW5004 Weather Reports


time (UTC)temp
C
wind
direction
speed
KPH
gust
KPH
rain 1hr
cm
rain 24hr
cm
rain mn
cm
humidity
%
barometer
mb
20260510033021 11 263 1.6 9.7 0.00 0.00 0.00 100 1006.1
20260510031518 11 238 4.8 8.0 0.00 0.00 0.00 100 1006.2
20260510030012 11 243 6.4 11.3 0.00 0.00 0.00 100 1006.2
20260510024509 11 257 6.4 12.9 0.00 0.00 0.00 100 1006.3
20260510023004 11 246 6.4 11.3 0.00 0.00 0.00 100 1006.2
20260510021601 11 249 3.2 9.7 0.00 0.00 0.00 100 1006.4
20260510020056 11 248 3.2 9.7 0.00 0.00 0.00 100 1006.2
20260510014551 11 232 3.2 8.0 0.00 0.00 0.00 100 1006.0
20260510013047 11 247 3.2 9.7 0.00 0.00 0.00 100 1006.1
20260510011545 11 240 1.6 11.3 0.00 0.00 0.00 100 1005.8
20260510010038 11 243 1.6 8.0 0.00 0.00 0.00 100 1005.7
20260510004537 11 273 3.2 8.0 0.00 0.00 0.00 100 1005.6
20260510003029 11 275 1.6 9.7 0.00 0.00 0.00 100 1005.4
20260510001526 12 263 6.4 14.5 0.00 0.00 0.00 100 1005.2
20260510000034 12 327 4.8 11.3 0.00 0.00 0.00 100 1005.0
20260509234516 11 257 8.0 16.1 0.00 0.00 0.00 100 1004.8
20260509233013 11 281 8.0 19.3 0.00 0.00 0.00 100 1005.3
20260509231509 11 348 8.0 25.7 0.00 0.00 0.00 100 1005.8
20260509230004 11 5 8.0 24.1 0.00 0.00 0.00 100 1005.5
20260509224558 13 287 9.7 40.2 0.00 0.00 0.00 34 1004.7
20260509223101 18 296 4.8 12.9 0.00 0.00 0.00 56 1002.8
20260509221550 18 236 6.4 16.1 0.00 0.00 0.00 55 1002.3
20260509220047 18 287 4.8 19.3 0.00 0.00 0.00 55 1002.1
20260509214540 19 274 6.4 17.7 0.00 0.00 0.00 55 1002.0
20260509213039 19 315 8.0 20.9 0.00 0.00 0.00 55 1002.1
20260509211533 20 261 12.9 25.7 0.00 0.00 0.00 54 1002.2
20260509210038 20 248 11.3 24.1 0.00 0.00 0.00 53 1002.3
20260509204528 20 258 12.9 27.4 0.00 0.00 0.00 54 1002.4
20260509203018 20 244 11.3 27.4 0.00 0.00 0.00 54 1002.7
20260509201515 19 278 11.3 32.2 0.00 0.00 0.00 55 1002.9
20260509200010 19 267 11.3 27.4 0.00 0.00 0.00 55 1003.4
20260509194505 20 310 11.3 29.0 0.00 0.00 0.00 55 1003.4
20260509193001 20 258 8.0 22.5 0.00 0.00 0.00 55 1003.7
20260509191558 20 252 12.9 22.5 0.00 0.00 0.00 55 1003.8
20260509190053 20 282 11.3 20.9 0.00 0.00 0.00 55 1003.9
20260509184558 19 298 11.3 25.7 0.00 0.00 0.00 53 1004.0
20260509183044 19 279 8.0 22.5 0.00 0.00 0.00 55 1004.1
20260509181546 19 244 11.3 19.3 0.00 0.00 0.00 55 1004.3
20260509180035 18 240 11.3 22.5 0.00 0.00 0.00 54 1004.5
20260509174535 18 260 8.0 16.1 0.00 0.00 0.00 54 1004.6
20260509173028 18 274 6.4 17.7 0.00 0.00 0.00 52 1004.9
20260509171527 17 322 0.0 11.3 0.00 0.00 0.00 42 1004.7
20260509170018 17 147 3.2 24.1 0.00 0.00 0.00 42 1005.0
20260509164513 17 301 6.4 14.5 0.00 0.00 0.00 45 1005.3
20260509163008 16 300 8.0 16.1 0.00 0.00 0.00 39 1005.5
20260509161504 16 316 4.8 12.9 0.00 0.00 0.00 28 1005.8
20260509160101 15 264 8.0 14.5 0.00 0.00 0.00 26 1005.8
20260509154556 15 296 8.0 19.3 0.00 0.00 0.00 18 1006.0
20260509153053 15 227 9.7 17.7 0.00 0.00 0.00 9 1006.1
20260509151555 14 275 8.0 16.1 0.00 0.00 0.00 6 1006.1
20260509150044 13 248 6.4 19.3 0.00 0.00 0.00 1 1006.2
20260509144550 13 276 8.0 14.5 0.00 0.00 0.00 100 1006.2
20260509143034 13 265 6.4 16.1 0.00 0.00 0.00 100 1006.1
20260509141532 12 259 4.8 11.3 0.00 0.00 0.00 100 1006.1
20260509140026 12 287 3.2 16.1 0.00 0.00 0.00 100 1006.1
20260509134538 12 290 4.8 14.5 0.00 0.00 0.00 100 1006.2
20260509133020 12 278 3.2 6.4 0.00 0.00 0.00 100 1006.2
20260509131514 11 283 3.2 11.3 0.00 0.00 0.00 100 1006.3
20260509130007 11 266 6.4 14.5 0.00 0.00 0.00 100 1006.4
20260509124505 11 275 4.8 11.3 0.00 0.00 0.00 100 1006.4
20260509123131 11 269 4.8 12.9 0.00 0.00 0.00 100 1006.6
20260509121611 11 260 6.4 14.5 0.00 0.00 0.00 100 1006.8
20260509120054 10 240 4.8 9.7 0.00 0.00 0.00 100 1007.0
20260509114545 10 245 6.4 12.9 0.00 0.00 0.00 100 1006.8
20260509113041 10 244 4.8 16.1 0.00 0.00 0.00 100 1006.8
20260509111551 10 236 3.2 11.3 0.00 0.00 0.00 100 1006.8
20260509110034 10 240 4.8 9.7 0.00 0.00 0.00 100 1006.8
20260509104539 10 251 3.2 11.3 0.00 0.00 0.00 100 1006.8
20260509103023 10 232 4.8 9.7 0.00 0.00 0.00 100 1006.8
20260509101524 10 242 3.2 11.3 0.00 0.00 0.00 100 1006.8
20260509100014 10 236 4.8 9.7 0.00 0.00 0.00 100 1006.8
20260509094520 10 249 4.8 11.3 0.00 0.00 0.00 100 1006.9
20260509093005 10 249 4.8 12.9 0.00 0.00 0.00 100 1007.0
20260509091501 10 263 1.6 6.4 0.00 0.00 0.00 100 1007.0
20260509084553 10 263 4.8 9.7 0.00 0.00 0.00 100 1007.3
20260509083048 10 274 3.2 9.7 0.00 0.00 0.00 100 1007.2
20260509081546 10 228 1.6 9.7 0.00 0.00 0.00 100 1007.3
20260509080039 10 264 4.8 9.7 0.00 0.00 0.00 100 1007.3
20260509074544 10 265 3.2 11.3 0.00 0.00 0.00 100 1007.3
20260509073030 10 270 3.2 8.0 0.00 0.00 0.00 100 1007.4
20260509071527 10 277 3.2 8.0 0.00 0.00 0.00 100 1007.5
20260509070022 10 244 3.2 9.7 0.00 0.00 0.00 100 1007.5
20260509064517 10 265 3.2 9.7 0.00 0.00 0.00 100 1007.6
20260509063022 10 267 4.8 8.0 0.00 0.00 0.00 100 1007.8
20260509061510 10 271 3.2 8.0 0.00 0.00 0.00 100 1007.9
20260509060005 10 251 3.2 9.7 0.00 0.00 0.00 100 1008.0
20260509054604 10 243 3.2 9.7 0.00 0.00 0.00 100 1008.2
20260509053105 10 231 1.6 8.0 0.00 0.00 0.00 100 1008.4
20260509051553 10 247 4.8 9.7 0.00 0.00 0.00 100 1008.6
20260509050048 10 242 4.8 11.3 0.00 0.00 0.00 100 1008.8
20260509044542 10 245 3.2 11.3 0.00 0.00 0.00 100 1008.9
20260509043039 10 236 6.4 11.3 0.00 0.00 0.00 100 1008.9
20260509041605 10 244 1.6 9.7 0.00 0.00 0.00 100 1009.2
20260509040032 10 275 4.8 9.7 0.00 0.00 0.00 100 1009.3
20260509034524 10 245 4.8 8.0 0.00 0.00 0.00 100 1009.4